Location: Newark
(7.0858°N, 171.3717°E)
Time: 16:13:19
(UTC+00:00)

Transit 2A - Pass Details

Date: 04 December 2020
Orbit: 598 x 960 km, 66.7° (Epoch: 20 January)

Event Time Altitude Azimuth Distance (km) Brightness Sun altitude
Rises 04:02:59 0° 220° (SW) 3,580 10.5 29.1°
Reaches altitude 10° 04:05:44 10° 229° (SW) 2,662 10.4 28.5°
Maximum altitude 04:11:19 34° 291° (WNW) 1,531 8.4 27.3°
Drops below altitude 10° 04:16:55 10° 354° (N) 2,667 8.7 26.1°
Sets 04:19:42 0° 4° (N) 3,588 9.2 25.5°
